Location: Lesignano de� Bagni
(44.6500°N, 10.3000°E)
Time: 07:14:54
(UTC+00:00)

Cosmos 1666 - Pass Details

Date: 03 March 2021
Orbit: 497 x 518 km, 82.5° (Epoch: 19 April)

Event Time Altitude Azimuth Distance (km) Brightness Sun altitude
Rises 18:27:20 0° 172° (S) 2,571 6.1 -14.7°
Reaches altitude 10° 18:29:30 10° 165° (SSE) 1,693 5.1 -15.0°
Maximum altitude 18:33:01 43° 94° (E) 713 2.9 -15.7°
Drops below altitude 10° 18:36:35 10° 22° (NNE) 1,713 5.2 -16.3°
Sets 18:38:46 0° 15° (NNE) 2,605 6.2 -16.7°
